Satellite-Ground Cal/Val Region Overpasses Predictions

Prediction of Satellite NPP Overpassing Cal/Val Region: PacNW

Region Location: (Latitude: 10.00, Longitude: 139.50) to (Latitude: 22.70, Longitude: 165.60).

Table of predicted overpasses for the next 14.0 days since TLE Epoch: 8/7/2021
Interval Starting Time Starting Location Ending Time Ending Location
1 08/07/2021 02:40:00 ( 10.91, 159.57) 08/07/2021 02:43:20 ( 22.65, 156.77)
2 08/07/2021 15:11:38 ( 22.70, 157.02) 08/07/2021 15:15:14 ( 10.02, 154.00)
3 08/08/2021 02:20:44 ( 10.02, 164.53) 08/08/2021 02:24:20 ( 22.70, 161.51)
4 08/08/2021 14:52:38 ( 22.65, 161.76) 08/08/2021 14:56:13 ( 10.03, 158.76)
5 08/09/2021 03:43:13 ( 10.01, 143.91) 08/09/2021 03:46:49 ( 22.69, 140.90)
6 08/09/2021 14:34:40 ( 18.91, 165.60) 08/09/2021 14:37:11 ( 10.04, 163.52)
7 08/09/2021 16:15:06 ( 22.66, 141.15) 08/09/2021 16:17:01 ( 15.91, 139.51)
8 08/10/2021 03:24:12 ( 10.06, 148.66) 08/10/2021 03:27:47 ( 22.68, 145.65)
9 08/10/2021 15:56:05 ( 22.67, 145.91) 08/10/2021 15:59:40 ( 10.05, 142.90)
10 08/11/2021 03:05:11 ( 10.05, 153.42) 08/11/2021 03:08:46 ( 22.67, 150.41)
11 08/11/2021 15:37:03 ( 22.68, 150.67) 08/11/2021 15:40:39 ( 10.00, 147.65)
12 08/12/2021 02:46:09 ( 10.04, 158.18) 08/12/2021 02:49:44 ( 22.66, 155.17)
13 08/12/2021 15:18:02 ( 22.69, 155.42) 08/12/2021 15:21:38 ( 10.02, 152.41)
14 08/13/2021 02:27:08 ( 10.02, 162.94) 08/13/2021 02:30:43 ( 22.65, 159.93)
15 08/13/2021 14:59:01 ( 22.65, 160.17) 08/13/2021 15:02:36 ( 10.03, 157.16)
16 08/14/2021 02:10:39 ( 19.00, 165.59) 08/14/2021 02:11:42 ( 22.69, 164.68)
17 08/14/2021 03:49:36 ( 10.02, 142.32) 08/14/2021 03:52:58 ( 21.88, 139.51)
18 08/14/2021 14:40:00 ( 22.66, 164.93) 08/14/2021 14:43:35 ( 10.04, 161.92)
19 08/14/2021 16:21:30 ( 22.66, 139.55) 08/14/2021 16:21:33 ( 22.48, 139.51)
20 08/15/2021 03:30:35 ( 10.01, 147.08) 08/15/2021 03:34:11 ( 22.69, 144.06)
21 08/15/2021 16:02:28 ( 22.67, 144.31) 08/15/2021 16:06:03 ( 10.05, 141.31)
22 08/16/2021 03:11:34 ( 10.05, 151.82) 08/16/2021 03:15:09 ( 22.68, 148.82)
23 08/16/2021 15:43:27 ( 22.68, 149.07) 08/16/2021 15:47:02 ( 10.06, 146.06)
24 08/17/2021 02:52:33 ( 10.04, 156.58) 08/17/2021 02:56:08 ( 22.66, 153.58)
25 08/17/2021 15:24:26 ( 22.69, 153.83) 08/17/2021 15:28:02 ( 10.01, 150.81)
26 08/18/2021 02:33:31 ( 10.03, 161.34) 08/18/2021 02:37:06 ( 22.65, 158.34)
27 08/18/2021 15:05:24 ( 22.70, 158.59) 08/18/2021 15:09:00 ( 10.02, 155.57)
28 08/19/2021 02:15:07 ( 12.20, 165.60) 08/19/2021 02:18:05 ( 22.65, 163.09)
29 08/19/2021 03:56:00 ( 10.03, 140.72) 08/19/2021 03:57:29 ( 15.26, 139.51)
30 08/19/2021 14:46:24 ( 22.65, 163.33) 08/19/2021 14:49:59 ( 10.03, 160.33)
31 08/20/2021 03:36:58 ( 10.02, 145.48) 08/20/2021 03:40:34 ( 22.70, 142.46)
32 08/20/2021 14:30:19 ( 12.27, 165.60) 08/20/2021 14:30:57 ( 10.04, 165.09)
